Content
SEND FEEDBACK

Daily
Averages
Monthly
Summary
United States of America

READING, PENNSYLVANIA


Home > North America > United States > Pennsylvania
Elevation: 325 feet     Latitude: 40 20N     Longitude: 075 58W

WEATHER
 
SELECT A DAY
Number of Records: 193,619;   Date Range: 1/1/95 - 8/28/14
 
SHARE

PRINT THIS DATA

[ ← Previous Day ]
WEATHER ALMANAC - JANUARY 31, 2013
[ Next Day → ]
[ °C ]   °F
Weather ElementAverageHighLow
Temperature44.1 °F57.9 °F (2:54 am)28 °F (8:54 pm)
Dewpoint33.2 °F55.9 °F (2:54 am)10.9 °F (9:54 pm)
Humidity68 %100 % (12:49 am)40 % (12:54 pm)
Barometer29.43 in29.85 in (8:54 pm)29.09 in (4:28 am)
Wind Speed14 mph28.8 mph (8:54 am)
Wind Gust43.7 mph (11:54 am)
Weather ElementAverage
Visibility8.3 mi
Wind DirectionSW (224 °)

Weather ElementTotal
Precipitation2.13 in
Heating Degree Days22.1 (Base 65)
Averaged from 30 records on January 31, 2013
WEATHER CONDITIONS BREAKOUT
WIND DIRECTION BREAKOUT
WEATHER BY HOUR - JANUARY 31, 2013
[ °C ]   °F
Local TimeTemperatureDewpointHumidityBarometerVisibilityWind DirectionWind SpeedGust SpeedPrecipitationEventsConditions
12:49 AM55.4 °F55.4 °F100 %29.20 in5.0 miSE (130°)4.6 mph0.41 inRainRain
12:54 AM55.9 °F55.0 °F97 %29.20 in5.0 miCalm0.42 inRainHeavy Rain
1:18 AM55.4 °F53.6 °F94 %29.16 in1.8 miCalm0.11 inRainHeavy Rain
1:54 AM55.9 °F55.0 °F97 %29.14 in2.0 miCalm0.31 inRainHeavy Rain
2:01 AM55.4 °F55.4 °F100 %29.12 in1.5 miCalm0.09 inRainHeavy Rain
2:18 AM55.4 °F55.4 °F100 %29.13 in3.0 miSSW (200°)10.4 mph0.19 inRainRain
2:25 AM55.4 °F55.4 °F100 %29.13 in5.0 miSW (230°)12.7 mph19.6 mph0.22 inRainHeavy Rain
2:54 AM57.9 °F55.9 °F93 %29.15 in7.0 miSW (230°)12.7 mph21.9 mph0.32 inRainRain
3:54 AM55.9 °F52.0 °F87 %29.12 in10.0 miSW (220°)4.6 mph0.04 inRainLight Rain
4:28 AM55.4 °F51.8 °F88 %29.09 in10.0 miWSW (240°)10.4 mph0.00 inRainLight Rain
4:54 AM52.0 °F46.0 °F80 %29.16 in8.0 miWest (280°)18.4 mph42.6 mph0.01 inRainLight Rain
5:01 AM51.8 °F46.4 °F82 %29.16 in10.0 miWest (270°)16.1 mph33.4 mph0.00 inOvercast
5:54 AM46.0 °F37.9 °F73 %29.25 in10.0 miWNW (290°)15.0 mph24.2 mph0.01 inOvercast
6:54 AM44.1 °F30.9 °F60 %29.33 in10.0 miWest (280°)19.6 mph26.5 mph0.00 inMostly Cloudy
7:54 AM42.1 °F27.0 °F55 %29.40 in10.0 miWest (280°)19.6 mph32.2 mphMostly Cloudy
8:54 AM41.0 °F25.0 °F53 %29.45 in10.0 miWest (280°)28.8 mph39.1 mphMostly Cloudy
9:54 AM42.1 °F25.0 °F51 %29.49 in10.0 miWest (280°)16.1 mph24.2 mphMostly Cloudy
10:54 AM39.0 °F21.9 °F50 %29.52 in10.0 miWest (280°)26.5 mph38.0 mphMostly Cloudy
11:54 AM42.1 °F21.0 °F43 %29.54 in10.0 miWest (260°)24.2 mph43.7 mphMostly Cloudy
12:54 PM41.0 °F18.0 °F40 %29.56 in10.0 miWNW (290°)24.2 mph35.7 mphMostly Cloudy
1:54 PM39.0 °F18.0 °F43 %29.59 in10.0 miWest (260°)21.9 mph36.8 mphMostly Cloudy
2:54 PM37.9 °F19.0 °F47 %29.63 in10.0 miWest (280°)18.4 mph36.8 mphMostly Cloudy
3:54 PM37.0 °F15.1 °F41 %29.67 in10.0 miWest (280°)17.3 mph29.9 mphOvercast
4:54 PM33.1 °F17.1 °F52 %29.71 in10.0 miWest (280°)19.6 mph28.8 mphScattered Clouds
5:54 PM33.1 °F19.9 °F59 %29.74 in10.0 miWest (280°)11.5 mph19.6 mph0.00 inOvercast
7:54 PM30.0 °F16.0 °F56 %29.83 in10.0 miWNW (300°)28.8 mph35.7 mphOvercast
8:54 PM28.0 °F14.0 °F56 %29.85 in10.0 miWest (270°)10.4 mphPartly Cloudy
9:54 PM28.9 °F10.9 °F47 %29.84 in10.0 miWest (260°)10.4 mphPartly Cloudy
10:54 PM28.0 °F10.9 °F49 %29.84 in10.0 miWSW (240°)8.1 mphScattered Clouds
11:54 PM28.9 °F10.9 °F47 %29.85 in10.0 miSW (230°)9.2 mphOvercast
Hourly data recorded from KRDG, located miles away from Reading, Pennsylvania







STORIES FROM OUR PARTNERS